Regional Weather Roundup
Issued by NWS

Home | Current Version | Previous Version | Graphics & Text | Print | Product List | Glossary On
Versions: 1 2 3 4 5 6 7 8 9 10 11 12 13 14 15 16 17 18 19 20 21 22 23 24 25 26 27 28
000
ASUS45 KGTF 041610
RWRMT
MONTANA HOURLY WEATHER ROUNDUP
NATIONAL WEATHER SERVICE GREAT FALLS MT
1000 AM MDT MON MAY 04 2015

NOTE: "FAIR" INDICATES FEW OR NO CLOUDS BELOW 12000 FEET WITH NO
SIGNIFICANT WEATHER AND/OR OBSTRUCTIONS TO VISIBILITY.

MTZ001>007-043-041700-
WEST OF THE DIVIDE

CITY           SKY/WX    TMP DP  RH WIND       PRES   REMARKS
KALISPELL      SUNNY     50  29  44 VRB6      29.94F
MISSOULA       SUNNY     47  28  47 CALM      29.98F
BUTTE          MOSUNNY   53  31  42 N5        30.00S
DEER LODGE       N/A     52  30  43 CALM      30.00F
EUREKA           N/A     48  27  43 CALM      29.98F
HAMILTON         N/A     55  27  33 NE2       29.95F
LIBBY            N/A     46  28  49 CALM      29.95F
$$

MTZ008-052>055-041700-
SOUTHWEST MONTANA

CITY           SKY/WX    TMP DP  RH WIND       PRES   REMARKS
BOZEMAN        SUNNY     52  38  58 N5        29.99S
DILLON         SUNNY     55  34  45 SW5       29.99F
$$

MTZ009-010-012-014-046-048-049-054-041700-
EAST SLOPES AND CENTRAL MONTANA

CITY           SKY/WX    TMP DP  RH WIND       PRES   REMARKS
CUT BANK       SUNNY     48  29  47 VRB3      29.94F
GREAT FALLS    SUNNY     58  37  45 VRB3      29.94S
HELENA         SUNNY     53  30  41 CALM      29.97S
$$

MTZ011-013-016-021-045-047-050-051-041700-
NORTH CENTRAL MONTANA

CITY           SKY/WX    TMP DP  RH WIND       PRES   REMARKS
HAVRE          SUNNY     57  34  41 E8        29.95S
LEWISTOWN      SUNNY     62  42  47 CALM      29.96F
CHINOOK          N/A     55  34  44 E16       29.96F
FORT BENTON      N/A     57  36  44 NE5       29.95F
$$

MTZ017>020-022>042-056>058-061-062-041700-
EASTERN PLAINS

CITY           SKY/WX    TMP DP  RH WIND       PRES   REMARKS
BAKER          SUNNY     54  38  54 SE29G38   30.16S
BILLINGS       SUNNY     54  38  54 VRB3      30.01S
GLASGOW        SUNNY     59  30  33 SE20      30.05S
JORDAN           N/A     63  38  39 S17G24    30.02F
LIVINGSTON     SUNNY     54  37  52 E5        29.99F
MILES CITY     MOSUNNY   60  39  45 SE15G24   30.06F
SIDNEY         SUNNY     63  27  25 SE20G25   30.14F
WOLF POINT     SUNNY     65  30  27 S14G26    30.09F
BIG TIMBER       N/A     52  37  58 CALM      30.01F
FORSYTH          N/A     63  41  45 SE18      30.03F
PLENTYWOOD       N/A     59  27  29 S16G22    30.14F
POPLAR           N/A     64  28  25 SE17G24   30.10F
$$

REGIONAL REPORTS...DAKOTAS

CITY           SKY/WX    TMP DP  RH WIND       PRES   REMARKS
WILLISTON      MOSUNNY   61  27  27 S9        30.16F
MINOT          MOSUNNY   61  22  22 S10       30.20R
DICKINSON      MOSUNNY   60  25  26 S25G32    30.17F
BEACH          FAIR      57  30  35 S30G36    30.15S
CROSBY         FAIR      61  23  23 S15       30.17S
WATFORD CITY   FAIR      63  27  25 S17G23    30.14F
BISMARCK       MOSUNNY   57  31  37 CALM      30.24S
GRAND FORKS    MOSUNNY   61  32  33 SE5       30.22S
FARGO          MOSUNNY   62  31  31 CALM      30.22R
BUFFALO SD       N/A     48  43  82 S24       30.14S
RAPID CITY     LGT RAIN  46  40  79 NE5       30.23R
$$

REGIONAL REPORTS...WYOMING/IDAHO/WASHINGTON

CITY           SKY/WX    TMP DP  RH WIND       PRES   REMARKS
GILLETTE       SUNNY     53  39  59 S26G35    30.09R
SHERIDAN       MOSUNNY   60  45  57 SE13      30.02F
BUFFALO WY     PTSUNNY   54  43  66 SE14      30.07S
CODY           SUNNY     57  41  54 S10       30.03F
YELLOWSTONE LA   N/A     43  35  73 CALM      30.15S
IDAHO FALLS    MOSUNNY   57  43  59 CALM      30.00S
SALMON           N/A     52  34  50 N3        29.98F
BOISE          SUNNY     68  34  28 SE10      29.89S
SPOKANE        SUNNY     53  31  42 NE9       29.90S
$$

REGIONAL REPORTS...ALBERTA

CITY           SKY/WX    TMP DP  RH WIND       PRES   REMARKS
EDMONTON       PTSUNNY   50  32  50 E16       29.97F
CALGARY        PTSUNNY   52  25  35 VRB2      29.93F
LETHBRIDGE     SUNNY     48  30  49 W5        29.93F
MEDICINE HAT   MOSUNNY   57  34  41 NW5       29.94F
$$

REGIONAL REPORTS...SASKATCHEWAN

CITY           SKY/WX    TMP DP  RH WIND       PRES   REMARKS
SWIFT CURRENT  SUNNY     57  25  28 SE21G28   30.04F
REGINA         SUNNY     55  32  41 S9        30.15F
SASKATOON      MOSUNNY   52  30  43 SW3       30.12F
$$



USA.gov is the U.S. government's official web portal to all federal, state and local government web resources and services.